Location: Zagreb
(45.8150°N, 15.9819°E)
Time: 13:08:31
(UTC+02:00)

STARLINK-1710 - Pass Details

Date: 20 September 2020
Orbit: 378 x 380 km, 53.0° (Epoch: 20 October)

Event Time Altitude Azimuth Distance (km) Brightness Sun altitude
Exits shadow 04:20:54 27° 30° (NNE) 778 4.9 -24.1°
Drops below altitude 10° 04:22:39 10° 50° (NE) 1,402 6.7 -23.9°
Sets 04:24:46 0° 58° (ENE) 2,257 8.2 -23.5°
